Back to catalog

ANDURIL-216

AliveAmateur RadioSSO
NORAD 69879·PAYLOAD·🇺🇸 United States

Launched Jul 7, 2026 from Vandenberg Space Force Base

Loading…

Next Passes (next 24 hours)

TLE

FreshSource: Space-Track

Epoch: Sep 14, 2026, 10:34 UTC

1 69879U 26156L   26257.44035138  .00000981  00000-0  10320-3 0  9996
2 69879  97.7469 156.7272 0004050 283.6921  76.3847 14.91625523 10300

Track ANDURIL-216 in real time with AllMySat

Download on the App Store